Content
SEND FEEDBACK

Daily
Averages
Monthly
Summary
United States of America

DEDEDO, GUAM


Home > North America > United States > Guam
Elevation: 364 feet     Latitude: 13 33N     Longitude: 144 49E

WEATHER
 
SELECT A DAY
Number of Records: 215,487;   Date Range: 1/1/95 - 12/16/14
 
SHARE

PRINT THIS DATA

[ ← Previous Day ]
WEATHER ALMANAC - FEBRUARY 26, 2013
[ Next Day → ]
[ °C ]   °F
Weather ElementAverageHighLow
Temperature78.1 °F82.6 °F (4:54 pm)73.9 °F (6:54 am)
Dewpoint73.1 °F75.2 °F (12:32 pm)71.1 °F (2:54 pm)
Humidity84.9 %96 % (2:54 am)71 % (4:54 pm)
Barometer29.88 in29.92 in (8:54 am)29.82 in (3:54 pm)
Wind Speed13.6 mph21.9 mph (12:32 pm)
Wind Gust28.8 mph (6:54 pm)
Weather ElementAverage
Visibility9.3 mi
Wind DirectionENE (65 °)

Weather ElementTotal
Precipitation0.10 in
Cooling Degree Days13.3 (Base 65)
Growing Degree Days28.3 (Base 50)
Averaged from 26 records on February 26, 2013
WEATHER CONDITIONS BREAKOUT
WIND DIRECTION BREAKOUT
WEATHER BY HOUR - FEBRUARY 26, 2013
[ °C ]   °F
Local TimeTemperatureDewpointHumidityBarometerVisibilityWind DirectionWind SpeedGust SpeedPrecipitationEventsConditions
1:54 AM75.9 °F73.0 °F91 %29.90 in10.0 miNE (40°)11.5 mphPartly Cloudy
2:47 AM75.2 °F73.4 °F94 %29.90 in9.0 miNE (40°)11.5 mph0.00 inRainLight Rain
2:54 AM75.0 °F73.9 °F96 %29.88 in10.0 miNE (50°)9.2 mph0.00 inRainLight Rain
3:54 AM75.0 °F73.0 °F94 %29.87 in10.0 miENE (60°)11.5 mph0.00 inOvercast
4:54 AM75.0 °F72.0 °F90 %29.86 in10.0 miENE (60°)10.4 mphPartly Cloudy
5:54 AM75.0 °F72.0 °F90 %29.87 in10.0 miNE (50°)10.4 mphPartly Cloudy
6:54 AM73.9 °F72.0 °F93 %29.89 in3.0 miENE (70°)13.8 mph0.06 inRainRain
7:54 AM75.0 °F73.0 °F94 %29.91 in10.0 miENE (60°)10.4 mph0.02 inPartly Cloudy
8:54 AM78.1 °F74.7 °F89 %29.92 in10.0 miENE (60°)12.7 mph0.02 inOvercast
9:54 AM81.0 °F74.7 °F81 %29.92 in10.0 miENE (70°)18.4 mphScattered Clouds
10:54 AM81.7 °F73.2 °F75 %29.91 in10.0 miENE (60°)19.6 mph24.2 mphMostly Cloudy
11:54 AM80.8 °F74.7 °F82 %29.89 in8.0 miEast (90°)12.7 mph25.3 mph0.00 inRainLight Rain
12:32 PM80.6 °F75.2 °F84 %29.90 in7.0 miENE (70°)21.9 mph27.6 mph0.00 inRainLight Rain
12:45 PM80.6 °F75.2 °F84 %29.90 in9.0 miEast (80°)15.0 mph0.00 inRainLight Rain
12:54 PM78.6 °F75.0 °F89 %29.88 in10.0 miEast (80°)15.0 mph24.2 mph0.00 inScattered Clouds
1:54 PM77.7 °F74.1 °F89 %29.86 in7.0 miENE (70°)15.0 mph0.00 inMostly Cloudy
2:54 PM80.1 °F71.1 °F74 %29.84 in10.0 miENE (70°)16.1 mph23.0 mphScattered Clouds
3:54 PM82.2 °F72.3 °F72 %29.82 in10.0 miEast (80°)13.8 mph20.7 mphPartly Cloudy
4:54 PM82.6 °F72.5 °F71 %29.83 in10.0 miENE (60°)13.8 mphPartly Cloudy
5:54 PM80.6 °F73.2 °F78 %29.85 in10.0 miENE (60°)12.7 mphPartly Cloudy
6:54 PM76.3 °F71.8 °F86 %29.86 in8.0 miEast (80°)13.8 mph28.8 mphMostly Cloudy
7:54 PM77.4 °F71.8 °F83 %29.86 in10.0 miENE (60°)11.5 mphClear
8:54 PM77.9 °F72.7 °F84 %29.88 in10.0 miENE (60°)11.5 mphScattered Clouds
9:54 PM77.7 °F71.6 °F81 %29.89 in10.0 miEast (80°)9.2 mphMostly Cloudy
10:54 PM78.6 °F73.2 °F83 %29.89 in10.0 miENE (70°)13.8 mphMostly Cloudy
11:54 PM79.2 °F72.5 °F80 %29.88 in10.0 miENE (60°)17.3 mphMostly Cloudy
Hourly data recorded from PGUM, located miles away from Dededo, Guam







STORIES FROM OUR PARTNERS